,,,PA_Meas_PMT16A,,PR_Meas_QMR101_102,,RH_Meas_QMH101,,SR_Meas_QMS101,,TA_Meas_QMH101,,GenWind,,GenWind,
date,time,status,PA,status,PR,status,RH,status,SR,status,TA,status,DirAvg,status,SpdAvg,
2010-07-04, 00:00:04,VALID,1004.44,VALID,0,VALID,85.5274,VALID,0,VALID,26.3713,VALID,73,VALID,0.937891,
2010-07-04, 00:01:04,VALID,1004.43,VALID,0,VALID,84.9018,VALID,0,VALID,26.5056,VALID,21,VALID,0.969531,
2010-07-04, 00:02:04,VALID,1004.48,VALID,0,VALID,84.4746,VALID,0,VALID,26.5835,VALID,74,VALID,1.12969,
2010-07-04, 00:03:04,VALID,1004.48,VALID,0,VALID,84.1313,VALID,0,VALID,26.6245,VALID,14,VALID,0.646094,
2010-07-04, 00:04:04,VALID,1004.49,VALID,0,VALID,84.2305,VALID,0,VALID,26.605,VALID,50,VALID,0.872266,
2010-07-04, 00:05:04,VALID,1004.46,VALID,0,VALID,84.2762,VALID,0,VALID,26.5641,VALID,48,VALID,0.478516,
2010-07-04, 00:06:04,VALID,1004.48,VALID,0,VALID,84.4899,VALID,0,VALID,26.5251,VALID,30,VALID,1.00195,
2010-07-04, 00:07:04,VALID,1004.41,VALID,0,VALID,84.589,VALID,0,VALID,26.5271,VALID,44,VALID,0.94375,
2010-07-04, 00:08:04,VALID,1004.44,VALID,0,VALID,84.6195,VALID,0,VALID,26.5446,VALID,21,VALID,0.909766,
2010-07-04, 00:09:04,VALID,1004.46,VALID,0,VALID,84.6195,VALID,0,VALID,26.5661,VALID,72,VALID,0.829687,
2010-07-04, 00:10:04,VALID,1004.47,VALID,0,VALID,84.3525,VALID,0,VALID,26.6635,VALID,85,VALID,0.890234,
2010-07-04, 00:11:04,VALID,1004.49,VALID,0,VALID,83.8414,VALID,0,VALID,26.7783,VALID,54,VALID,0.513672,
2010-07-04, 00:12:04,VALID,1004.53,VALID,0,VALID,83.5668,VALID,0,VALID,26.8193,VALID,33,VALID,0.498437,
2010-07-04, 00:13:04,VALID,1004.53,VALID,0,VALID,83.2997,VALID,0,VALID,26.8583,VALID,59,VALID,0.458203,
2010-07-04, 00:14:04,VALID,1004.48,VALID,0,VALID,83.2082,VALID,0,VALID,26.8778,VALID,58,VALID,0.316406,
2010-07-04, 00:15:04,VALID,1004.48,VALID,0,VALID,83.2311,VALID,0,VALID,26.8583,VALID,81,VALID,0.446484,
2010-07-04, 00:16:04,VALID,1004.47,VALID,0,VALID,83.0251,VALID,0,VALID,26.9362,VALID,54,VALID,0.594141,
2010-07-04, 00:17:04,VALID,1004.45,VALID,0,VALID,82.9336,VALID,0,VALID,26.9557,VALID,82,VALID,0.205859,
2010-07-04, 00:18:04,VALID,1004.46,VALID,0,VALID,82.8115,VALID,0,VALID,26.9772,VALID,14,VALID,0.787109,
2010-07-04, 00:19:04,VALID,1004.45,VALID,0,VALID,82.7505,VALID,0,VALID,26.9752,VALID,81,VALID,0.977734,
2010-07-04, 00:20:04,VALID,1004.48,VALID,0,VALID,82.5063,VALID,0,VALID,27.0142,VALID,57,VALID,1.27148,
2010-07-04, 00:21:04,VALID,1004.51,VALID,0,VALID,82.2622,VALID,0,VALID,27.0706,VALID,72,VALID,0.982422,
2010-07-04, 00:22:04,VALID,1004.48,VALID,0,VALID,81.896,VALID,0,VALID,27.17,VALID,81,VALID,1.19414,
2010-07-04, 00:23:04,VALID,1004.46,VALID,0,VALID,81.4917,VALID,0,VALID,27.2675,VALID,32,VALID,1.32852,
2010-07-04, 00:24:04,VALID,1004.49,VALID,0,VALID,81.3315,VALID,0,VALID,27.2675,VALID,89,VALID,0.869922,
2010-07-04, 00:25:04,VALID,1004.46,VALID,0,VALID,81.362,VALID,0,VALID,27.2459,VALID,82,VALID,0.478516,
2010-07-04, 00:26:04,VALID,1004.45,VALID,0,VALID,81.2323,VALID,0,VALID,27.2869,VALID,88,VALID,1.24102,
2010-07-04, 00:27:04,VALID,1004.45,VALID,0,VALID,81.1637,VALID,0,VALID,27.3259,VALID,71,VALID,0.825391,
2010-07-04, 00:28:04,VALID,1004.47,VALID,0,VALID,81.1637,VALID,0,VALID,27.3475,VALID,91,VALID,0.677344,
2010-07-04, 00:29:04,VALID,1004.44,VALID,0,VALID,81.2628,VALID,0,VALID,27.2869,VALID,16,VALID,0.472266,
2010-07-04, 00:30:04,VALID,1004.48,VALID,0,VALID,81.1789,VALID,0,VALID,27.3454,VALID,50,VALID,1.51719,
2010-07-04, 00:31:04,VALID,1004.48,VALID,0,VALID,81.0721,VALID,0,VALID,27.3454,VALID,80,VALID,0.677734,
2010-07-04, 00:32:04,VALID,1004.44,VALID,0,VALID,81.2094,VALID,0,VALID,27.3454,VALID,77,VALID,0.671094,
2010-07-04, 00:33:04,VALID,1004.45,VALID,0,VALID,81.1484,VALID,0,VALID,27.3454,VALID,86,VALID,0.898438,
2010-07-04, 00:34:04,VALID,1004.44,VALID,0,VALID,81.1789,VALID,0,VALID,27.3649,VALID,86,VALID,0.868359,
2010-07-04, 00:35:04,VALID,1004.45,VALID,0,VALID,81.156,VALID,0,VALID,27.3844,VALID,74,VALID,0.711328,
2010-07-04, 00:36:04,VALID,1004.46,VALID,0,VALID,81.095,VALID,0,VALID,27.3628,VALID,37,VALID,0.854297,
2010-07-04, 00:37:04,VALID,1004.44,VALID,0,VALID,80.9424,VALID,0,VALID,27.4039,VALID,75,VALID,1.08633,
2010-07-04, 00:38:04,VALID,1004.44,VALID,0,VALID,80.7746,VALID,0,VALID,27.4233,VALID,38,VALID,0.547656,
2010-07-04, 00:39:04,VALID,1004.46,VALID,0,VALID,80.7136,VALID,0,VALID,27.4233,VALID,83,VALID,1.14219,
2010-07-04, 00:40:04,VALID,1004.46,VALID,0,VALID,80.7288,VALID,0,VALID,27.4623,VALID,110,VALID,0.766406,
2010-07-04, 00:41:04,VALID,1004.46,VALID,0,VALID,80.9043,VALID,0,VALID,27.4233,VALID,85,VALID,0.0386719,
2010-07-04, 00:42:04,VALID,1004.46,VALID,0,VALID,81.1103,VALID,0,VALID,27.3844,VALID,27,VALID,0.557031,
2010-07-04, 00:43:04,VALID,1004.42,VALID,0,VALID,81.301,VALID,0,VALID,27.3454,VALID,34,VALID,0.857813,
2010-07-04, 00:44:04,VALID,1004.44,VALID,0,VALID,81.362,VALID,0,VALID,27.3064,VALID,13,VALID,1.55352,
2010-07-04, 00:45:04,VALID,1004.44,VALID,0,VALID,81.5146,VALID,0,VALID,27.3259,VALID,53,VALID,0.528906,
2010-07-04, 00:46:04,VALID,1004.49,VALID,0,VALID,81.5604,VALID,0,VALID,27.3454,VALID,90,VALID,1.01172,
2010-07-04, 00:47:04,VALID,1004.44,VALID,0,VALID,81.2171,VALID,0,VALID,27.3823,VALID,42,VALID,0.816406,
2010-07-04, 00:48:04,VALID,1004.47,VALID,0,VALID,81.1026,VALID,0,VALID,27.4233,VALID,28,VALID,1.05742,
2010-07-04, 00:49:04,VALID,1004.48,VALID,0,VALID,81.2934,VALID,0,VALID,27.3823,VALID,41,VALID,0.629687,
2010-07-04, 00:50:04,VALID,1004.43,VALID,0,VALID,81.4154,VALID,0,VALID,27.3628,VALID,63,VALID,0.384766,
2010-07-04, 00:51:04,VALID,1004.46,VALID,0,VALID,81.3925,VALID,0,VALID,27.3628,VALID,93,VALID,1.10625,
2010-07-04, 00:52:04,VALID,1004.44,VALID,0,VALID,81.3239,VALID,0,VALID,27.3628,VALID,67,VALID,0.154297,
2010-07-04, 00:53:04,VALID,1004.42,VALID,0,VALID,81.3696,VALID,0,VALID,27.3628,VALID,76,VALID,0.225,
2010-07-04, 00:54:04,VALID,1004.43,VALID,0,VALID,81.4841,VALID,0,VALID,27.3649,VALID,75,VALID,0.465625,
2010-07-04, 00:55:04,VALID,1004.43,VALID,0,VALID,81.5298,VALID,0,VALID,27.3433,VALID,87,VALID,0.711328,
2010-07-04, 00:56:04,VALID,1004.43,VALID,0,VALID,81.5832,VALID,0,VALID,27.3454,VALID,97,VALID,0.598047,
2010-07-04, 00:57:04,VALID,1004.38,VALID,0,VALID,81.5222,VALID,0,VALID,27.3649,VALID,72,VALID,0.564062,
2010-07-04, 00:58:04,VALID,1004.42,VALID,0,VALID,81.4002,VALID,0,VALID,27.3844,VALID,76,VALID,1.2625,
2010-07-04, 00:59:04,VALID,1004.39,VALID,0,VALID,81.2399,VALID,0,VALID,27.4213,VALID,59,VALID,0.989844,
2010-07-04, 01:00:04,VALID,1004.42,VALID,0,VALID,81.034,VALID,0,VALID,27.4602,VALID,93,VALID,1.35508,
2010-07-04, 01:01:04,VALID,1004.4,VALID,0,VALID,80.7517,VALID,0,VALID,27.5403,VALID,112,VALID,1.1957,
2010-07-04, 01:02:04,VALID,1004.4,VALID,0,VALID,80.5915,VALID,0,VALID,27.5598,VALID,99,VALID,1.11367,
2010-07-04, 01:03:04,VALID,1004.36,VALID,0,VALID,80.5533,VALID,0,VALID,27.5792,VALID,100,VALID,1.32227,
2010-07-04, 01:04:04,VALID,1004.35,VALID,0,VALID,80.3245,VALID,0,VALID,27.6161,VALID,63,VALID,1.08672,
2010-07-04, 01:05:04,VALID,1004.38,VALID,0,VALID,80.1566,VALID,0,VALID,27.6551,VALID,103,VALID,1.71289,
2010-07-04, 01:06:04,VALID,1004.36,VALID,0,VALID,80.088,VALID,0,VALID,27.6962,VALID,82,VALID,0.838672,
2010-07-04, 01:07:04,VALID,1004.3,VALID,0,VALID,80.1338,VALID,0,VALID,27.6767,VALID,54,VALID,0.782422,
2010-07-04, 01:08:04,VALID,1004.3,VALID,0,VALID,80.2635,VALID,0,VALID,27.6356,VALID,58,VALID,1.27617,
2010-07-04, 01:09:04,VALID,1004.28,VALID,0,VALID,80.2863,VALID,0,VALID,27.6377,VALID,76,VALID,1.37656,
2010-07-04, 01:10:04,VALID,1004.27,VALID,0,VALID,80.4084,VALID,0,VALID,27.6356,VALID,89,VALID,1.08867,
2010-07-04, 01:11:04,VALID,1004.26,VALID,0,VALID,80.355,VALID,0,VALID,27.6161,VALID,89,VALID,0.627344,
2010-07-04, 01:12:04,VALID,1004.21,VALID,0,VALID,80.2711,VALID,0,VALID,27.5966,VALID,90,VALID,1.61523,
2010-07-04, 01:13:04,VALID,1004.2,VALID,0,VALID,80.3397,VALID,0,VALID,27.6377,VALID,75,VALID,0.694922,
2010-07-04, 01:14:04,VALID,1004.15,VALID,0,VALID,80.4542,VALID,0,VALID,27.5987,VALID,51,VALID,0.412109,
2010-07-04, 01:15:04,VALID,1004.17,VALID,0,VALID,80.5381,VALID,0,VALID,27.5598,VALID,106,VALID,1.02109,
2010-07-04, 01:16:04,VALID,1004.16,VALID,0,VALID,80.6602,VALID,0,VALID,27.5403,VALID,100,VALID,1.4375,
2010-07-04, 01:17:04,VALID,1004.11,VALID,0,VALID,80.8127,VALID,0,VALID,27.5208,VALID,64,VALID,0.455078,
2010-07-04, 01:18:04,VALID,1004.11,VALID,0,VALID,81.0034,VALID,0,VALID,27.4602,VALID,97,VALID,0.587891,
2010-07-04, 01:19:04,VALID,1004.12,VALID,0,VALID,80.9729,VALID,0,VALID,27.5034,VALID,97,VALID,0.799219,
2010-07-04, 01:20:04,VALID,1004.14,VALID,0,VALID,81.0569,VALID,0,VALID,27.4623,VALID,84,VALID,0.600781,
2010-07-04, 01:21:04,VALID,1004.1,VALID,0,VALID,81.0797,VALID,0,VALID,27.4602,VALID,9,VALID,0.631641,
2010-07-04, 01:22:04,VALID,1004.09,VALID,0,VALID,80.9577,VALID,0,VALID,27.5013,VALID,80,VALID,1.4625,
2010-07-04, 01:23:04,VALID,1004.13,VALID,0,VALID,80.683,VALID,0,VALID,27.5382,VALID,87,VALID,1.11055,
2010-07-04, 01:24:04,VALID,1004.13,VALID,0,VALID,80.6525,VALID,0,VALID,27.6008,VALID,84,VALID,1.1625,
2010-07-04, 01:25:04,VALID,1004.14,VALID,0,VALID,80.6983,VALID,0,VALID,27.5598,VALID,42,VALID,0.344531,
2010-07-04, 01:26:04,VALID,1004.15,VALID,0,VALID,80.7059,VALID,0,VALID,27.5424,VALID,55,VALID,0.575781,
2010-07-04, 01:27:04,VALID,1004.14,VALID,0,VALID,80.9424,VALID,0,VALID,27.5013,VALID,108,VALID,0.393359,
2010-07-04, 01:28:04,VALID,1004.13,VALID,0,VALID,81.1331,VALID,0,VALID,27.4623,VALID,50,VALID,1.03281,
2010-07-04, 01:29:04,VALID,1004.11,VALID,0,VALID,81.1789,VALID,0,VALID,27.4213,VALID,22,VALID,1.67227,
2010-07-04, 01:30:04,VALID,1004.07,VALID,0,VALID,81.1179,VALID,0,VALID,27.4428,VALID,73,VALID,0.779688,
2010-07-04, 01:31:04,VALID,1004.08,VALID,0,VALID,81.2018,VALID,0,VALID,27.4428,VALID,78,VALID,0.876953,
2010-07-04, 01:32:04,VALID,1004.05,VALID,0,VALID,81.2781,VALID,0,VALID,27.4233,VALID,84,VALID,1.5832,
2010-07-04, 01:33:04,VALID,1004.02,VALID,0,VALID,81.301,VALID,0,VALID,27.4233,VALID,72,VALID,1.41719,
2010-07-04, 01:34:04,VALID,1004.01,VALID,0,VALID,81.2018,VALID,0,VALID,27.4428,VALID,88,VALID,2.11172,
2010-07-04, 01:35:04,VALID,1004.02,VALID,0,VALID,81.1331,VALID,0,VALID,27.4818,VALID,87,VALID,0.894531,
2010-07-04, 01:36:04,VALID,1004.01,VALID,0,VALID,81.095,VALID,0,VALID,27.4623,VALID,86,VALID,2.28359,
2010-07-04, 01:37:04,VALID,1004,VALID,0,VALID,81.0034,VALID,0,VALID,27.4797,VALID,39,VALID,0.493359,
2010-07-04, 01:38:04,VALID,1003.98,VALID,0,VALID,81.0874,VALID,0,VALID,27.4818,VALID,78,VALID,0.935547,
2010-07-04, 01:39:04,VALID,1003.96,VALID,0,VALID,81.1637,VALID,0,VALID,27.4644,VALID,60,VALID,1.23438,
2010-07-04, 01:40:04,VALID,1003.94,VALID,0,VALID,81.1484,VALID,0,VALID,27.4213,VALID,69,VALID,2.075,
2010-07-04, 01:41:04,VALID,1003.93,VALID,0,VALID,81.1789,VALID,0,VALID,27.4623,VALID,81,VALID,1.48242,
2010-07-04, 01:42:04,VALID,1003.87,VALID,0,VALID,81.2399,VALID,0,VALID,27.4428,VALID,61,VALID,0.505859,
2010-07-04, 01:43:04,VALID,1003.86,VALID,0,VALID,81.3391,VALID,0,VALID,27.4428,VALID,29,VALID,0.778125,
2010-07-04, 01:44:04,VALID,1003.88,VALID,0,VALID,81.4917,VALID,0,VALID,27.3844,VALID,25,VALID,0.180859,
2010-07-04, 01:45:04,VALID,1003.85,VALID,0,VALID,81.7129,VALID,0,VALID,27.3454,VALID,118,VALID,0.886719,
2010-07-04, 01:46:04,VALID,1003.9,VALID,0,VALID,81.9418,VALID,0,VALID,27.3044,VALID,76,VALID,1.01523,
2010-07-04, 01:47:04,VALID,1003.89,VALID,0,VALID,82.0944,VALID,0,VALID,27.2869,VALID,71,VALID,0.511328,
2010-07-04, 01:48:04,VALID,1003.86,VALID,0,VALID,82.2317,VALID,0,VALID,27.248,VALID,76,VALID,0.225781,
2010-07-04, 01:49:04,VALID,1003.84,VALID,0,VALID,82.3995,VALID,0,VALID,27.2285,VALID,63,VALID,0.969531,
2010-07-04, 01:50:04,VALID,1003.83,VALID,0,VALID,82.4529,VALID,0,VALID,27.2285,VALID,52,VALID,0.412891,
2010-07-04, 01:51:04,VALID,1003.84,VALID,0,VALID,82.5674,VALID,0,VALID,27.248,VALID,37,VALID,0.521484,
2010-07-04, 01:52:04,VALID,1003.85,VALID,0,VALID,82.6055,VALID,0,VALID,27.209,VALID,17,VALID,0.470313,
2010-07-04, 01:53:04,VALID,1003.82,VALID,0,VALID,82.7047,VALID,0,VALID,27.17,VALID,352,VALID,0.674219,
2010-07-04, 01:54:04,VALID,1003.87,VALID,0,VALID,82.781,VALID,0,VALID,27.1916,VALID,66,VALID,0.967578,
2010-07-04, 01:55:04,VALID,1003.82,VALID,0,VALID,82.7581,VALID,0,VALID,27.1895,VALID,24,VALID,1.12383,
2010-07-04, 01:56:04,VALID,1003.85,VALID,0,VALID,82.7352,VALID,0,VALID,27.17,VALID,93,VALID,0.9375,
2010-07-04, 01:57:04,VALID,1003.8,VALID,0,VALID,82.7962,VALID,0,VALID,27.17,VALID,89,VALID,0.819922,
2010-07-04, 01:58:04,VALID,1003.84,VALID,0,VALID,82.8115,VALID,0,VALID,27.209,VALID,99,VALID,0.814062,
2010-07-04, 01:59:04,VALID,1003.84,VALID,0,VALID,82.7199,VALID,0,VALID,27.248,VALID,46,VALID,1.01133,
2010-07-04, 02:00:04,VALID,1003.88,VALID,0,VALID,82.6131,VALID,0,VALID,27.248,VALID,76,VALID,1.72305,
2010-07-04, 02:01:04,VALID,1003.84,VALID,0,VALID,82.3995,VALID,0,VALID,27.3259,VALID,78,VALID,1.85703,
2010-07-04, 02:02:04,VALID,1003.87,VALID,0,VALID,81.9571,VALID,0,VALID,27.4018,VALID,79,VALID,1.86406,
2010-07-04, 02:03:04,VALID,1003.85,VALID,0,VALID,81.7358,VALID,0,VALID,27.4408,VALID,109,VALID,1.5582,
2010-07-04, 02:04:04,VALID,1003.86,VALID,0,VALID,81.6748,VALID,0,VALID,27.4428,VALID,50,VALID,0.550391,
2010-07-04, 02:05:04,VALID,1003.88,VALID,0,VALID,81.4993,VALID,0,VALID,27.4428,VALID,77,VALID,1.57813,
2010-07-04, 02:06:04,VALID,1003.89,VALID,0,VALID,81.4993,VALID,0,VALID,27.4623,VALID,77,VALID,1.00664,
2010-07-04, 02:07:04,VALID,1003.89,VALID,0,VALID,81.3391,VALID,0,VALID,27.4623,VALID,55,VALID,1.76523,
2010-07-04, 02:08:04,VALID,1003.88,VALID,0,VALID,81.4612,VALID,0,VALID,27.4623,VALID,37,VALID,1.17266,
2010-07-04, 02:09:04,VALID,1003.88,VALID,0,VALID,81.4154,VALID,0,VALID,27.4233,VALID,79,VALID,1.23164,
2010-07-04, 02:10:04,VALID,1003.87,VALID,0,VALID,81.4764,VALID,0,VALID,27.4233,VALID,68,VALID,0.575,
2010-07-04, 02:11:04,VALID,1003.88,VALID,0,VALID,81.7358,VALID,0,VALID,27.3844,VALID,33,VALID,0.711719,
2010-07-04, 02:12:04,VALID,1003.84,VALID,0,VALID,81.8121,VALID,0,VALID,27.3649,VALID,87,VALID,0.786328,
2010-07-04, 02:13:04,VALID,1003.86,VALID,0,VALID,82.0028,VALID,0,VALID,27.3454,VALID,14,VALID,0.980078,
2010-07-04, 02:14:04,VALID,1003.87,VALID,0,VALID,82.0868,VALID,0,VALID,27.2849,VALID,66,VALID,0.409766,
2010-07-04, 02:15:04,VALID,1003.83,VALID,0,VALID,82.1478,VALID,0,VALID,27.2869,VALID,72,VALID,0.911719,
2010-07-04, 02:16:04,VALID,1003.84,VALID,0,VALID,82.3232,VALID,0,VALID,27.2675,VALID,44,VALID,0.664063,
2010-07-04, 02:17:04,VALID,1003.83,VALID,0,VALID,82.4453,VALID,0,VALID,27.209,VALID,1,VALID,1.25312,
2010-07-04, 02:18:04,VALID,1003.77,VALID,0,VALID,82.3766,VALID,0,VALID,27.1895,VALID,64,VALID,1.19062,
2010-07-04, 02:19:04,VALID,1003.76,VALID,0,VALID,82.4911,VALID,0,VALID,27.1895,VALID,57,VALID,0.537109,
2010-07-04, 02:20:04,VALID,1003.74,VALID,0,VALID,82.3385,VALID,0,VALID,27.2069,VALID,105,VALID,1.47773,
2010-07-04, 02:21:04,VALID,1003.69,VALID,0,VALID,82.247,VALID,0,VALID,27.2264,VALID,90,VALID,0.604297,
2010-07-04, 02:22:04,VALID,1003.75,VALID,0,VALID,82.2317,VALID,0,VALID,27.248,VALID,36,VALID,0.811328,
2010-07-04, 02:23:04,VALID,1003.71,VALID,0,VALID,82.3232,VALID,0,VALID,27.209,VALID,24,VALID,0.884766,
2010-07-04, 02:24:04,VALID,1003.71,VALID,0,VALID,82.2317,VALID,0,VALID,27.1875,VALID,84,VALID,1.20273,
2010-07-04, 02:25:04,VALID,1003.64,VALID,0,VALID,82.2393,VALID,0,VALID,27.209,VALID,83,VALID,1.34805,
2010-07-04, 02:26:04,VALID,1003.67,VALID,0,VALID,81.9418,VALID,0,VALID,27.2285,VALID,52,VALID,1.67578,
2010-07-04, 02:27:04,VALID,1003.67,VALID,0,VALID,81.4841,VALID,0,VALID,27.3475,VALID,63,VALID,0.652344,
2010-07-04, 02:28:04,VALID,1003.75,VALID,0,VALID,81.3544,VALID,0,VALID,27.3454,VALID,83,VALID,1.06914,
2010-07-04, 02:29:04,VALID,1003.74,VALID,0,VALID,81.4841,VALID,0,VALID,27.3259,VALID,81,VALID,0.448828,
2010-07-04, 02:30:04,VALID,1003.74,VALID,0,VALID,81.5375,VALID,0,VALID,27.3085,VALID,79,VALID,0.482812,
2010-07-04, 02:31:04,VALID,1003.75,VALID,0,VALID,81.5909,VALID,0,VALID,27.289,VALID,52,VALID,0.507031,
2010-07-04, 02:32:04,VALID,1003.73,VALID,0,VALID,81.4917,VALID,0,VALID,27.2869,VALID,65,VALID,1.06875,
2010-07-04, 02:33:04,VALID,1003.72,VALID,0,VALID,81.3849,VALID,0,VALID,27.2869,VALID,82,VALID,1.12969,
2010-07-04, 02:34:04,VALID,1003.67,VALID,0,VALID,81.1484,VALID,0,VALID,27.2849,VALID,71,VALID,1.33516,
2010-07-04, 02:35:04,VALID,1003.7,VALID,0,VALID,81.2094,VALID,0,VALID,27.3064,VALID,69,VALID,0.239063,
2010-07-04, 02:36:04,VALID,1003.7,VALID,0,VALID,81.1713,VALID,0,VALID,27.2869,VALID,42,VALID,1.30313,
2010-07-04, 02:37:04,VALID,1003.7,VALID,0,VALID,81.0187,VALID,0,VALID,27.3064,VALID,23,VALID,1.47812,
2010-07-04, 02:38:04,VALID,1003.69,VALID,0,VALID,81.0263,VALID,0,VALID,27.3259,VALID,84,VALID,1.12734,
2010-07-04, 02:39:04,VALID,1003.73,VALID,0,VALID,81.2705,VALID,0,VALID,27.3064,VALID,64,VALID,0.630859,
2010-07-04, 02:40:04,VALID,1003.7,VALID,0,VALID,81.2323,VALID,0,VALID,27.2675,VALID,28,VALID,1.61953,
2010-07-04, 02:41:04,VALID,1003.67,VALID,0,VALID,81.0874,VALID,0,VALID,27.2869,VALID,82,VALID,1.91953,
2010-07-04, 02:42:04,VALID,1003.72,VALID,0,VALID,81.1026,VALID,0,VALID,27.3259,VALID,39,VALID,0.943359,
2010-07-04, 02:43:04,VALID,1003.68,VALID,0,VALID,81.2247,VALID,0,VALID,27.3064,VALID,29,VALID,0.968359,
2010-07-04, 02:44:04,VALID,1003.68,VALID,0,VALID,81.4383,VALID,0,VALID,27.2675,VALID,20,VALID,0.796094,
2010-07-04, 02:45:04,VALID,1003.7,VALID,0,VALID,81.629,VALID,0,VALID,27.2285,VALID,95,VALID,0.771484,
2010-07-04, 02:46:04,VALID,1003.7,VALID,0,VALID,81.7435,VALID,0,VALID,27.1895,VALID,56,VALID,0.814062,
2010-07-04, 02:47:04,VALID,1003.68,VALID,0,VALID,81.8503,VALID,0,VALID,27.17,VALID,73,VALID,0.776563,
2010-07-04, 02:48:04,VALID,1003.7,VALID,0,VALID,82.0257,VALID,0,VALID,27.1311,VALID,49,VALID,0.596875,
2010-07-04, 02:49:04,VALID,1003.7,VALID,0,VALID,82.1859,VALID,0,VALID,27.0921,VALID,89,VALID,1.04258,
2010-07-04, 02:50:04,VALID,1003.66,VALID,0,VALID,82.163,VALID,0,VALID,27.0921,VALID,30,VALID,0.78125,
2010-07-04, 02:51:04,VALID,1003.67,VALID,0,VALID,82.1783,VALID,0,VALID,27.0921,VALID,345,VALID,0.3875,
2010-07-04, 02:52:04,VALID,1003.72,VALID,0,VALID,82.2164,VALID,0,VALID,27.1116,VALID,89,VALID,0.802344,
2010-07-04, 02:53:04,VALID,1003.75,VALID,0,VALID,82.163,VALID,0,VALID,27.0921,VALID,64,VALID,0.397266,
2010-07-04, 02:54:04,VALID,1003.71,VALID,0,VALID,82.2927,VALID,0,VALID,27.0706,VALID,84,VALID,0.996094,
2010-07-04, 02:55:04,VALID,1003.72,VALID,0,VALID,82.3385,VALID,0,VALID,27.0726,VALID,41,VALID,0.697266,
2010-07-04, 02:56:04,VALID,1003.67,VALID,0,VALID,82.3995,VALID,0,VALID,27.0531,VALID,114,VALID,0.663281,
2010-07-04, 02:57:04,VALID,1003.72,VALID,0,VALID,82.5674,VALID,0,VALID,27.0142,VALID,19,VALID,0.533594,
2010-07-04, 02:58:04,VALID,1003.72,VALID,0,VALID,82.7123,VALID,0,VALID,27.0142,VALID,45,VALID,0.845703,
2010-07-04, 02:59:04,VALID,1003.72,VALID,0,VALID,82.8573,VALID,0,VALID,26.9947,VALID,45,VALID,0.530469,
2010-07-04, 03:00:04,VALID,1003.72,VALID,0,VALID,82.987,VALID,0,VALID,26.9752,VALID,43,VALID,1.19258,
2010-07-04, 03:01:04,VALID,1003.7,VALID,0,VALID,82.903,VALID,0,VALID,26.9732,VALID,73,VALID,1.24102,
2010-07-04, 03:02:04,VALID,1003.71,VALID,0,VALID,82.8802,VALID,0,VALID,26.9926,VALID,40,VALID,0.784375,
2010-07-04, 03:03:04,VALID,1003.71,VALID,0,VALID,82.8649,VALID,0,VALID,27.0121,VALID,19,VALID,1.04414,
2010-07-04, 03:04:04,VALID,1003.72,VALID,0,VALID,82.6971,VALID,0,VALID,27.0316,VALID,6,VALID,1.23594,
2010-07-04, 03:05:04,VALID,1003.74,VALID,0,VALID,82.6742,VALID,0,VALID,27.0531,VALID,62,VALID,0.547656,
2010-07-04, 03:06:04,VALID,1003.74,VALID,0,VALID,82.7047,VALID,0,VALID,27.0336,VALID,31,VALID,0.607422,
2010-07-04, 03:07:04,VALID,1003.73,VALID,0,VALID,82.7734,VALID,0,VALID,27.0336,VALID,68,VALID,0.771094,
2010-07-04, 03:08:04,VALID,1003.73,VALID,0,VALID,82.9336,VALID,0,VALID,26.9926,VALID,27,VALID,0.574219,
2010-07-04, 03:09:04,VALID,1003.71,VALID,0,VALID,83.2082,VALID,0,VALID,26.9342,VALID,33,VALID,0.851953,
2010-07-04, 03:10:04,VALID,1003.69,VALID,0,VALID,83.0098,VALID,0,VALID,26.9947,VALID,34,VALID,1.73359,
2010-07-04, 03:11:04,VALID,1003.72,VALID,0,VALID,82.9412,VALID,0,VALID,27.0142,VALID,33,VALID,0.4,
2010-07-04, 03:12:04,VALID,1003.71,VALID,0,VALID,82.8802,VALID,0,VALID,27.0142,VALID,26,VALID,0.920703,
2010-07-04, 03:13:04,VALID,1003.67,VALID,0,VALID,82.5826,VALID,0,VALID,27.0531,VALID,39,VALID,1.30508,
2010-07-04, 03:14:04,VALID,1003.64,VALID,0,VALID,82.4758,VALID,0,VALID,27.09,VALID,11,VALID,1.15391,
2010-07-04, 03:15:04,VALID,1003.65,VALID,0,VALID,82.2317,VALID,0,VALID,27.129,VALID,88,VALID,1.36445,
2010-07-04, 03:16:04,VALID,1003.66,VALID,0,VALID,82.1402,VALID,0,VALID,27.17,VALID,68,VALID,1.54883,
2010-07-04, 03:17:04,VALID,1003.66,VALID,0,VALID,82.0944,VALID,0,VALID,27.1506,VALID,66,VALID,0.808594,
2010-07-04, 03:18:04,VALID,1003.66,VALID,0,VALID,82.0257,VALID,0,VALID,27.1506,VALID,59,VALID,0.738672,
2010-07-04, 03:19:04,VALID,1003.69,VALID,0,VALID,81.8121,VALID,0,VALID,27.1895,VALID,52,VALID,1.20781,
2010-07-04, 03:20:04,VALID,1003.7,VALID,0,VALID,81.7892,VALID,0,VALID,27.1875,VALID,65,VALID,0.965234,
2010-07-04, 03:21:04,VALID,1003.7,VALID,0,VALID,81.6214,VALID,0,VALID,27.209,VALID,68,VALID,1.27734,
2010-07-04, 03:22:04,VALID,1003.69,VALID,0,VALID,81.4917,VALID,0,VALID,27.2285,VALID,73,VALID,0.655859,
2010-07-04, 03:23:04,VALID,1003.7,VALID,0,VALID,81.3391,VALID,0,VALID,27.2869,VALID,90,VALID,1.43398,
2010-07-04, 03:24:04,VALID,1003.75,VALID,0,VALID,81.2476,VALID,0,VALID,27.2869,VALID,94,VALID,0.796484,
2010-07-04, 03:25:04,VALID,1003.71,VALID,0,VALID,81.0645,VALID,0,VALID,27.3064,VALID,84,VALID,1.1582,
2010-07-04, 03:26:04,VALID,1003.73,VALID,0,VALID,81.0569,VALID,0,VALID,27.3064,VALID,77,VALID,1.3957,
2010-07-04, 03:27:04,VALID,1003.72,VALID,0,VALID,80.622,VALID,0,VALID,27.3454,VALID,29,VALID,1.25508,
2010-07-04, 03:28:04,VALID,1003.73,VALID,0,VALID,80.5381,VALID,0,VALID,27.3649,VALID,91,VALID,1.97266,
2010-07-04, 03:29:04,VALID,1003.69,VALID,0,VALID,80.3321,VALID,0,VALID,27.4039,VALID,105,VALID,1.1207,
2010-07-04, 03:30:04,VALID,1003.69,VALID,0,VALID,80.149,VALID,0,VALID,27.4039,VALID,93,VALID,1.20273,
2010-07-04, 03:31:04,VALID,1003.69,VALID,0,VALID,79.8896,VALID,0,VALID,27.3823,VALID,38,VALID,1.46367,
2010-07-04, 03:32:04,VALID,1003.66,VALID,0,VALID,79.6913,VALID,0,VALID,27.4018,VALID,40,VALID,1.78477,
2010-07-04, 03:33:04,VALID,1003.69,VALID,0,VALID,79.5997,VALID,0,VALID,27.4408,VALID,80,VALID,2.23633,
2010-07-04, 03:34:04,VALID,1003.68,VALID,0,VALID,79.4853,VALID,0,VALID,27.4797,VALID,27,VALID,1.76367,
2010-07-04, 03:35:04,VALID,1003.68,VALID,0,VALID,79.5158,VALID,0,VALID,27.5013,VALID,100,VALID,1.51875,
2010-07-04, 03:36:04,VALID,1003.7,VALID,0,VALID,79.4395,VALID,0,VALID,27.4818,VALID,97,VALID,1.36875,
2010-07-04, 03:37:04,VALID,1003.69,VALID,0,VALID,79.2717,VALID,0,VALID,27.5013,VALID,90,VALID,1.05625,
2010-07-04, 03:38:04,VALID,1003.73,VALID,0,VALID,79.3404,VALID,0,VALID,27.4797,VALID,108,VALID,1.21953,
2010-07-04, 03:39:04,VALID,1003.74,VALID,0,VALID,79.3556,VALID,0,VALID,27.4602,VALID,72,VALID,1.7793,
2010-07-04, 03:40:04,VALID,1003.71,VALID,0,VALID,79.5311,VALID,0,VALID,27.4428,VALID,67,VALID,0.733594,
2010-07-04, 03:41:04,VALID,1003.73,VALID,0,VALID,79.5769,VALID,0,VALID,27.4018,VALID,113,VALID,1.83906,
2010-07-04, 03:42:04,VALID,1003.7,VALID,0,VALID,79.6531,VALID,0,VALID,27.4233,VALID,118,VALID,1.09922,
2010-07-04, 03:43:04,VALID,1003.75,VALID,0,VALID,79.7676,VALID,0.100563,VALID,27.3628,VALID,108,VALID,1.29492,
2010-07-04, 03:44:04,VALID,1003.74,VALID,0,VALID,79.821,VALID,0,VALID,27.3649,VALID,87,VALID,1.71523,
2010-07-04, 03:45:04,VALID,1003.69,VALID,0,VALID,79.8744,VALID,0,VALID,27.3433,VALID,82,VALID,0.308984,
2010-07-04, 03:46:04,VALID,1003.72,VALID,0,VALID,79.9049,VALID,0,VALID,27.3649,VALID,100,VALID,1.75742,
2010-07-04, 03:47:04,VALID,1003.67,VALID,0,VALID,79.5616,VALID,0,VALID,27.4408,VALID,74,VALID,1.75664,